Find JCSAT 3

NORAD ID: 23649 Int'l Des: 1995-043 Owner: JSAT Country: J operational
HEOCIRCULAR

实时位置

正在加载3D地球...

关于 JCSAT 3

正在加载描述...

即将过境

Passes for default location (London). Set your location on the main map for personalized predictions.

高度历史

Loading altitude history...

两行轨道根数

1 23649U 95043A 26120.38516980 -.00000007 00000-0 00000+0 0 9993
2 23649 12.8914 17.8851 0014470 64.7060 120.6235 0.99149153 69184
Epoch: Apr 30, 2026 • Age: 25 hours

当前状态

高度 36143.4 km
速度 3.06 km/s
星下点 -3.13°S, 158.15°W
发射日期 Aug 29, 1995
运行时间 30.6 years
类型 other

技术详情

分类 Payload
质量 3090.00 kg
干质量 1600.00 kg
总质量 3090.00 kg
长度 4.90 m
直径 2.80 m
跨度 26.20 m
形状 Box + 2 Pan
制造商 HSES
平台类型 HS-601
阶段状态 In Orbit
所有者/国家 JSAT/J

Most Searched